QPF
0.00 0.00 0.00 0.00 0.00 0.00 0.00 0.00 0.00 0.00 0.01 0.01 0.00 0.00 0.00 0.00 0.00 0.00 0.00 0.01 0.03 0.07 0.10 0.09 0.06 0.04 0.02 0.01 0.01 0.02 0.01 0.01 0.01 0.01 0.02 0.04 0.08 0.11 0.12 0.13 0.13 0.11 0.11 0.12
0.00 0.00 0.00 0.00 0.00 0.00 0.00 0.00 0.01 0.01 0.01 0.01 0.00 0.00 0.00 0.00 0.00 0.00 0.00 0.01 0.03 0.05 0.09 0.12 0.09 0.04 0.02 0.02 0.01 0.01 0.02 0.01 0.01 0.01 0.02 0.03 0.05 0.08 0.11 0.13 0.12 0.11 0.10 0.10
0.00 0.00 0.00 0.00 0.00 0.00 0.00 0.01 0.01 0.02 0.01 0.01 0.00 0.00 0.00 0.00 0.00 0.00 0.00 0.01 0.03 0.04 0.07 0.10 0.10 0.06 0.03 0.03 0.02 0.01 0.02 0.02 0.02 0.01 0.02 0.03 0.04 0.06 0.11 0.14 0.13 0.10 0.08 0.09
0.00 0.00 0.00 0.00 0.00 0.00 0.00 0.00 0.01 0.02 0.02 0.02 0.01 0.01 0.00 0.00 0.00 0.00 0.01 0.01 0.03 0.04 0.05 0.08 0.09 0.08 0.04 0.04 0.03 0.02 0.02 0.03 0.04 0.02 0.02 0.02 0.03 0.04 0.08 0.14 0.14 0.12 0.09 0.08
0.00 0.00 0.00 0.00 0.00 0.00 0.00 0.00 0.00 0.01 0.02 0.01 0.01 0.01 0.00 0.00 0.00 0.01 0.01 0.01 0.02 0.04 0.04 0.07 0.09 0.08 0.05 0.03 0.02 0.02 0.03 0.02 0.04 0.04 0.03 0.02 0.02 0.03 0.08 0.11 0.12 0.12 0.11 0.10
0.00 0.00 0.00 0.00 0.00 0.00 0.00 0.00 0.00 0.00 0.01 0.00 0.00 0.00 0.00 0.00 0.01 0.01 0.01 0.01 0.01 0.03 0.04 0.05 0.07 0.07 0.04 0.02 0.01 0.01 0.03 0.02 0.03 0.04 0.05 0.05 0.03 0.03 0.06 0.09 0.11 0.11 0.11 0.10
0.00 0.00 0.00 0.00 0.00 0.00 0.00 0.00 0.00 0.00 0.00 0.00 0.01 0.00 0.00 0.01 0.01 0.00 0.00 0.00 0.01 0.02 0.03 0.04 0.05 0.04 0.02 0.02 0.01 0.01 0.02 0.03 0.03 0.03 0.03 0.04 0.05 0.04 0.05 0.07 0.09 0.11 0.10 0.08
0.00 0.00 0.00 0.00 0.00 0.00 0.00 0.00 0.00 0.01 0.00 0.00 0.00 0.00 0.00 0.01 0.00 0.00 0.00 0.00 0.00 0.01 0.02 0.02 0.03 0.03 0.01 0.01 0.01 0.02 0.02 0.03 0.03 0.04 0.03 0.03 0.03 0.03 0.04 0.06 0.07 0.08 0.08 0.05
0.01 0.01 0.00 0.00 0.00 0.00 0.00 0.00 0.00 0.01 0.01 0.00 0.00 0.01 0.00 0.00 0.00 0.00 0.00 0.00 0.00 0.01 0.01 0.02 0.03 0.03 0.02 0.01 0.01 0.01 0.02 0.03 0.04 0.04 0.03 0.03 0.02 0.02 0.02 0.03 0.04 0.05 0.05 0.03
0.01 0.01 0.00 0.00 0.00 0.00 0.00 0.00 0.00 0.01 0.01 0.01 0.01 0.01 0.00 0.00 0.00 0.00 0.00 0.00 0.00 0.00 0.01 0.02 0.02 0.02 0.01 0.01 0.02 0.01 0.02 0.02 0.02 0.03 0.04 0.03 0.02 0.02 0.02 0.02 0.04 0.05 0.04 0.02
0.01 0.01 0.00 0.00 0.00 0.00 0.00 0.00 0.00 0.01 0.01 0.01 0.00 0.00 0.00 0.00 0.00 0.00 0.00 0.00 0.00 0.00 0.00 0.01 0.01 0.01 0.01 0.01 0.03 0.03 0.03 0.02 0.02 0.03 0.03 0.03 0.02 0.02 0.02 0.02 0.02 0.04 0.04 0.02
0.01 0.01 0.00 0.00 0.00 0.00 0.00 0.00 0.00 0.01 0.01 0.01 0.00 0.00 0.00 0.00 0.00 0.00 0.00 0.00 0.00 0.00 0.00 0.01 0.02 0.01 0.01 0.01 0.03 0.04 0.03 0.02 0.03 0.02 0.02 0.02 0.02 0.02 0.02 0.02 0.02 0.03 0.04 0.02
0.01 0.02 0.01 0.00 0.00 0.00 0.00 0.00 0.00 0.01 0.01 0.01 0.01 0.00 0.00 0.00 0.00 0.00 0.00 0.00 0.00 0.00 0.00 0.00 0.02 0.03 0.01 0.02 0.02 0.03 0.03 0.03 0.04 0.04 0.04 0.03 0.02 0.02 0.03 0.03 0.03 0.02 0.03 0.02
0.01 0.02 0.02 0.01 0.00 0.00 0.01 0.01 0.01 0.01 0.02 0.01 0.00 0.00 0.00 0.00 0.00 0.00 0.00 0.00 0.00 0.00 0.00 0.00 0.01 0.01 0.01 0.01 0.01 0.01 0.02 0.04 0.04 0.04 0.06 0.05 0.03 0.04 0.04 0.03 0.02 0.02 0.02 0.02
0.01 0.01 0.01 0.01 0.00 0.00 0.00 0.00 0.00 0.01 0.01 0.01 0.00 0.00 0.00 0.00 0.00 0.00 0.00 0.00 0.00 0.00 0.00 0.00 0.00 0.01 0.01 0.01 0.01 0.02 0.02 0.03 0.05 0.05 0.05 0.05 0.05 0.05 0.04 0.03 0.03 0.02 0.02 0.02
0.01 0.01 0.01 0.00 0.00 0.00 0.00 0.00 0.00 0.00 0.00 0.00 0.00 0.00 0.00 0.00 0.00 0.00 0.00 0.00 0.00 0.00 0.00 0.00 0.00 0.01 0.01 0.02 0.02 0.02 0.02 0.03 0.04 0.06 0.05 0.04 0.04 0.03 0.03 0.03 0.03 0.02 0.02 0.02
0.01 0.01 0.02 0.01 0.00 0.00 0.01 0.00 0.00 0.00 0.00 0.00 0.00 0.00 0.00 0.00 0.00 0.00 0.00 0.00 0.00 0.00 0.00 0.00 0.00 0.01 0.01 0.01 0.02 0.02 0.02 0.03 0.04 0.04 0.03 0.02 0.02 0.02 0.03 0.04 0.04 0.03 0.02 0.02
0.02 0.02 0.02 0.01 0.00 0.01 0.01 0.01 0.00 0.01 0.01 0.01 0.00 0.00 0.00 0.00 0.00 0.00 0.00 0.00 0.00 0.00 0.00 0.00 0.01 0.01 0.02 0.01 0.01 0.02 0.03 0.03 0.03 0.03 0.02 0.02 0.02 0.02 0.02 0.02 0.03 0.03 0.03 0.03
0.01 0.02 0.03 0.02 0.01 0.01 0.01 0.01 0.02 0.01 0.01 0.01 0.01 0.00 0.00 0.00 0.00 0.00 0.00 0.00 0.00 0.00 0.00 0.00 0.00 0.01 0.01 0.01 0.01 0.02 0.03 0.02 0.02 0.02 0.02 0.01 0.01 0.01 0.01 0.02 0.02 0.02 0.02 0.02
0.01 0.02 0.04 0.03 0.03 0.02 0.01 0.01 0.02 0.02 0.02 0.01 0.01 0.01 0.00 0.00 0.00 0.01 0.00 0.00 0.00 0.00 0.00 0.00 0.00 0.00 0.01 0.00 0.00 0.01 0.03 0.02 0.01 0.02 0.02 0.02 0.01 0.01 0.01 0.02 0.02 0.02 0.02 0.02
0.01 0.03 0.04 0.04 0.03 0.02 0.02 0.01 0.02 0.03 0.03 0.01 0.01 0.01 0.01 0.01 0.01 0.00 0.00 0.00 0.00 0.00 0.00 0.00 0.00 0.00 0.00 0.00 0.00 0.00 0.01 0.01 0.02 0.02 0.02 0.02 0.01 0.02 0.02 0.02 0.02 0.02 0.02 0.02
0.01 0.02 0.03 0.04 0.04 0.03 0.01 0.01 0.03 0.03 0.02 0.01 0.01 0.01 0.01 0.01 0.00 0.00 0.00 0.00 0.00 0.00 0.00 0.00 0.00 0.00 0.00 0.00 0.00 0.00 0.00 0.01 0.02 0.01 0.01 0.01 0.01 0.02 0.02 0.02 0.02 0.02 0.02 0.02
0.01 0.02 0.03 0.04 0.03 0.02 0.01 0.02 0.02 0.01 0.01 0.01 0.01 0.01 0.01 0.01 0.01 0.00 0.00 0.00 0.00 0.00 0.00 0.00 0.00 0.00 0.00 0.00 0.00 0.00 0.00 0.01 0.02 0.01 0.01 0.01 0.01 0.01 0.02 0.02 0.02 0.02 0.01 0.01
0.01 0.01 0.02 0.02 0.01 0.01 0.01 0.01 0.01 0.01 0.01 0.01 0.01 0.01 0.01 0.01 0.01 0.00 0.00 0.00 0.00 0.00 0.00 0.00 0.00 0.00 0.00 0.00 0.00 0.00 0.00 0.01 0.02 0.02 0.01 0.01 0.00 0.01 0.01 0.02 0.02 0.02 0.02 0.01
0.01 0.01 0.01 0.01 0.01 0.01 0.01 0.01 0.01 0.00 0.00 0.00 0.00 0.00 0.00 0.00 0.00 0.00 0.00 0.00 0.00 0.00 0.00 0.00 0.00 0.00 0.00 0.00 0.00 0.00 0.00 0.01 0.02 0.02 0.01 0.02 0.01 0.00 0.01 0.01 0.02 0.02 0.02 0.02
0.01 0.01 0.02 0.01 0.01 0.01 0.01 0.01 0.01 0.01 0.00 0.00 0.00 0.00 0.00 0.00 0.00 0.00 0.00 0.00 0.00 0.00 0.00 0.00 0.00 0.00 0.00 0.00 0.00 0.00 0.00 0.00 0.01 0.02 0.02 0.02 0.01 0.01 0.01 0.01 0.01 0.02 0.02 0.03
MSLP
1021.17 1021.60 1021.99 1022.33 1022.60 1022.77 1022.84 1022.80 1022.68 1022.47 1022.22 1021.94 1021.67 1021.44 1021.25 1021.11 1021.02 1020.94 1020.86 1020.74 1020.55 1020.26 1019.86 1019.33 1018.69 1017.94 1017.12 1016.26 1015.38 1014.52 1013.71 1012.95 1012.27 1011.66 1011.11 1010.61 1010.15 1009.70 1009.28 1008.90 1008.57 1008.33 1008.23 1008.30
1021.70 1022.03 1022.33 1022.58 1022.77 1022.90 1022.97 1022.96 1022.88 1022.73 1022.51 1022.23 1021.93 1021.62 1021.33 1021.08 1020.89 1020.74 1020.63 1020.54 1020.41 1020.23 1019.93 1019.51 1018.95 1018.24 1017.41 1016.50 1015.54 1014.59 1013.68 1012.85 1012.11 1011.46 1010.89 1010.38 1009.91 1009.46 1009.03 1008.63 1008.29 1008.05 1007.95 1008.04
1022.08 1022.32 1022.52 1022.69 1022.84 1022.96 1023.06 1023.12 1023.11 1023.02 1022.84 1022.55 1022.19 1021.79 1021.37 1020.98 1020.66 1020.43 1020.29 1020.21 1020.15 1020.08 1019.91 1019.61 1019.14 1018.49 1017.68 1016.75 1015.74 1014.73 1013.75 1012.87 1012.09 1011.43 1010.86 1010.35 1009.88 1009.43 1008.99 1008.57 1008.21 1007.96 1007.85 1007.94
1022.28 1022.42 1022.54 1022.65 1022.79 1022.96 1023.13 1023.29 1023.38 1023.36 1023.21 1022.91 1022.48 1021.95 1021.37 1020.82 1020.36 1020.02 1019.83 1019.76 1019.77 1019.80 1019.77 1019.60 1019.24 1018.67 1017.91 1016.99 1015.97 1014.93 1013.92 1013.02 1012.23 1011.56 1011.00 1010.51 1010.05 1009.61 1009.16 1008.73 1008.36 1008.09 1007.97 1008.05
1022.28 1022.33 1022.38 1022.49 1022.66 1022.90 1023.19 1023.47 1023.68 1023.75 1023.64 1023.32 1022.80 1022.13 1021.38 1020.66 1020.03 1019.57 1019.31 1019.24 1019.31 1019.44 1019.53 1019.49 1019.26 1018.79 1018.10 1017.22 1016.23 1015.18 1014.18 1013.27 1012.49 1011.85 1011.31 1010.84 1010.40 1009.97 1009.54 1009.11 1008.73 1008.45 1008.32 1008.39
1022.12 1022.09 1022.12 1022.24 1022.47 1022.83 1023.25 1023.68 1024.02 1024.18 1024.10 1023.75 1023.14 1022.33 1021.42 1020.51 1019.72 1019.14 1018.80 1018.72 1018.82 1019.03 1019.24 1019.33 1019.23 1018.87 1018.27 1017.46 1016.51 1015.50 1014.52 1013.63 1012.87 1012.24 1011.73 1011.29 1010.88 1010.48 1010.06 1009.65 1009.28 1009.01 1008.87 1008.93
1021.87 1021.81 1021.83 1021.99 1022.31 1022.79 1023.35 1023.92 1024.38 1024.62 1024.57 1024.19 1023.49 1022.55 1021.47 1020.40 1019.46 1018.76 1018.35 1018.24 1018.37 1018.65 1018.95 1019.16 1019.18 1018.94 1018.44 1017.71 1016.83 1015.86 1014.92 1014.06 1013.32 1012.72 1012.23 1011.81 1011.43 1011.06 1010.67 1010.29 1009.95 1009.69 1009.56 1009.61
1021.66 1021.58 1021.62 1021.83 1022.25 1022.83 1023.51 1024.19 1024.74 1025.03 1024.99 1024.57 1023.79 1022.74 1021.53 1020.32 1019.26 1018.46 1017.98 1017.84 1017.99 1018.31 1018.70 1019.01 1019.13 1019.00 1018.61 1017.97 1017.16 1016.26 1015.35 1014.52 1013.81 1013.22 1012.75 1012.35 1011.99 1011.65 1011.30 1010.95 1010.64 1010.42 1010.31 1010.35
1021.57 1021.50 1021.57 1021.84 1022.32 1022.99 1023.75 1024.48 1025.07 1025.37 1025.31 1024.84 1023.99 1022.85 1021.55 1020.24 1019.09 1018.22 1017.69 1017.53 1017.68 1018.04 1018.48 1018.86 1019.07 1019.04 1018.74 1018.20 1017.47 1016.63 1015.79 1014.99 1014.30 1013.72 1013.26 1012.87 1012.52 1012.20 1011.88 1011.57 1011.30 1011.11 1011.03 1011.08
1021.68 1021.63 1021.74 1022.05 1022.57 1023.25 1024.02 1024.75 1025.30 1025.56 1025.44 1024.91 1024.00 1022.80 1021.44 1020.09 1018.90 1017.99 1017.45 1017.27 1017.42 1017.79 1018.26 1018.69 1018.96 1019.01 1018.81 1018.36 1017.71 1016.96 1016.17 1015.42 1014.75 1014.19 1013.72 1013.33 1012.99 1012.68 1012.39 1012.11 1011.88 1011.72 1011.66 1011.73
1021.97 1021.96 1022.11 1022.43 1022.94 1023.58 1024.28 1024.91 1025.37 1025.52 1025.31 1024.71 1023.74 1022.51 1021.15 1019.80 1018.62 1017.72 1017.18 1017.00 1017.14 1017.51 1017.99 1018.44 1018.76 1018.87 1018.75 1018.39 1017.85 1017.18 1016.47 1015.78 1015.15 1014.60 1014.14 1013.75 1013.41 1013.11 1012.82 1012.57 1012.37 1012.23 1012.19 1012.26
1022.38 1022.42 1022.58 1022.89 1023.33 1023.87 1024.43 1024.90 1025.18 1025.19 1024.85 1024.16 1023.16 1021.94 1020.60 1019.31 1018.19 1017.35 1016.84 1016.68 1016.81 1017.17 1017.63 1018.09 1018.43 1018.59 1018.54 1018.28 1017.84 1017.28 1016.67 1016.05 1015.48 1014.97 1014.53 1014.14 1013.80 1013.50 1013.22 1012.98 1012.79 1012.66 1012.63 1012.69
1022.78 1022.87 1023.03 1023.29 1023.63 1024.00 1024.36 1024.62 1024.68 1024.50 1024.03 1023.26 1022.24 1021.05 1019.80 1018.61 1017.59 1016.84 1016.40 1016.27 1016.41 1016.75 1017.19 1017.63 1017.98 1018.17 1018.19 1018.02 1017.70 1017.26 1016.76 1016.25 1015.76 1015.30 1014.90 1014.53 1014.19 1013.89 1013.61 1013.37 1013.18 1013.05 1013.00 1013.03
1023.07 1023.19 1023.33 1023.50 1023.69 1023.87 1023.99 1024.00 1023.83 1023.45 1022.84 1022.01 1021.00 1019.88 1018.75 1017.71 1016.84 1016.21 1015.86 1015.78 1015.93 1016.25 1016.67 1017.08 1017.43 1017.66 1017.74 1017.66 1017.46 1017.15 1016.79 1016.39 1016.00 1015.62 1015.26 1014.92 1014.60 1014.30 1014.02 1013.77 1013.57 1013.42 1013.34 1013.34
1023.13 1023.26 1023.35 1023.42 1023.44 1023.40 1023.28 1023.03 1022.63 1022.07 1021.34 1020.47 1019.51 1018.50 1017.52 1016.66 1015.97 1015.49 1015.25 1015.24 1015.42 1015.74 1016.12 1016.52 1016.86 1017.11 1017.25 1017.26 1017.17 1017.00 1016.76 1016.50 1016.21 1015.91 1015.62 1015.32 1015.03 1014.73 1014.45 1014.19 1013.96 1013.79 1013.67 1013.61
1022.94 1023.03 1023.05 1022.99 1022.83 1022.58 1022.22 1021.73 1021.13 1020.42 1019.61 1018.74 1017.85 1016.98 1016.19 1015.53 1015.03 1014.73 1014.63 1014.70 1014.92 1015.24 1015.62 1015.99 1016.33 1016.60 1016.79 1016.89 1016.90 1016.85 1016.74 1016.58 1016.40 1016.19 1015.96 1015.71 1015.44 1015.16 1014.88 1014.60 1014.36 1014.14 1013.98 1013.86
1022.50 1022.52 1022.43 1022.22 1021.89 1021.43 1020.86 1020.19 1019.43 1018.61 1017.77 1016.93 1016.14 1015.43 1014.83 1014.39 1014.10 1013.98 1014.01 1014.18 1014.46 1014.80 1015.18 1015.55 1015.90 1016.19 1016.42 1016.58 1016.68 1016.72 1016.71 1016.66 1016.56 1016.43 1016.25 1016.04 1015.79 1015.53 1015.25 1014.97 1014.70 1014.46 1014.24 1014.07
1021.86 1021.77 1021.54 1021.18 1020.67 1020.04 1019.31 1018.49 1017.63 1016.76 1015.92 1015.15 1014.48 1013.94 1013.54 1013.29 1013.20 1013.25 1013.43 1013.70 1014.04 1014.42 1014.82 1015.20 1015.56 1015.88 1016.14 1016.36 1016.52 1016.64 1016.70 1016.71 1016.67 1016.59 1016.45 1016.26 1016.04 1015.79 1015.52 1015.24 1014.96 1014.69 1014.44 1014.21
1021.10 1020.84 1020.46 1019.94 1019.28 1018.51 1017.65 1016.75 1015.84 1014.97 1014.17 1013.49 1012.95 1012.57 1012.34 1012.27 1012.35 1012.55 1012.84 1013.21 1013.63 1014.06 1014.49 1014.91 1015.29 1015.64 1015.94 1016.20 1016.41 1016.57 1016.67 1016.72 1016.71 1016.64 1016.52 1016.36 1016.15 1015.91 1015.64 1015.37 1015.08 1014.80 1014.53 1014.26
1020.25 1019.81 1019.26 1018.58 1017.79 1016.92 1015.99 1015.05 1014.15 1013.31 1012.60 1012.02 1011.60 1011.35 1011.26 1011.34 1011.54 1011.85 1012.25 1012.70 1013.17 1013.66 1014.14 1014.60 1015.03 1015.41 1015.76 1016.05 1016.29 1016.47 1016.59 1016.65 1016.65 1016.59 1016.47 1016.31 1016.11 1015.87 1015.62 1015.35 1015.08 1014.80 1014.51 1014.22
1019.33 1018.69 1017.96 1017.14 1016.25 1015.31 1014.37 1013.44 1012.59 1011.83 1011.21 1010.74 1010.43 1010.29 1010.31 1010.48 1010.77 1011.15 1011.61 1012.11 1012.65 1013.19 1013.72 1014.23 1014.71 1015.15 1015.54 1015.86 1016.13 1016.33 1016.46 1016.51 1016.50 1016.43 1016.31 1016.14 1015.94 1015.71 1015.47 1015.22 1014.96 1014.68 1014.40 1014.11
1018.31 1017.46 1016.56 1015.62 1014.66 1013.71 1012.79 1011.93 1011.17 1010.52 1010.01 1009.66 1009.45 1009.40 1009.49 1009.71 1010.04 1010.45 1010.94 1011.48 1012.05 1012.63 1013.22 1013.78 1014.32 1014.81 1015.24 1015.61 1015.90 1016.12 1016.24 1016.29 1016.27 1016.19 1016.05 1015.88 1015.68 1015.47 1015.24 1015.00 1014.75 1014.50 1014.22 1013.93
1017.13 1016.10 1015.05 1014.03 1013.03 1012.10 1011.25 1010.50 1009.87 1009.37 1008.99 1008.75 1008.65 1008.67 1008.80 1009.05 1009.39 1009.81 1010.29 1010.84 1011.42 1012.03 1012.66 1013.27 1013.86 1014.40 1014.88 1015.29 1015.61 1015.84 1015.97 1016.01 1015.98 1015.89 1015.75 1015.58 1015.38 1015.17 1014.96 1014.74 1014.50 1014.26 1013.99 1013.70
1015.77 1014.59 1013.44 1012.36 1011.38 1010.51 1009.77 1009.17 1008.70 1008.36 1008.14 1008.04 1008.04 1008.13 1008.30 1008.56 1008.89 1009.29 1009.75 1010.28 1010.86 1011.48 1012.12 1012.77 1013.39 1013.97 1014.49 1014.93 1015.27 1015.51 1015.65 1015.69 1015.66 1015.56 1015.42 1015.25 1015.06 1014.86 1014.65 1014.44 1014.22 1013.98 1013.72 1013.43
1014.27 1012.98 1011.77 1010.69 1009.75 1008.98 1008.38 1007.95 1007.67 1007.52 1007.48 1007.52 1007.64 1007.81 1008.03 1008.30 1008.62 1008.99 1009.43 1009.92 1010.47 1011.08 1011.71 1012.36 1012.99 1013.59 1014.12 1014.56 1014.91 1015.16 1015.30 1015.34 1015.31 1015.22 1015.08 1014.91 1014.72 1014.53 1014.32 1014.11 1013.89 1013.65 1013.39 1013.10
1012.74 1011.39 1010.17 1009.12 1008.27 1007.62 1007.18 1006.94 1006.86 1006.91 1007.05 1007.26 1007.50 1007.76 1008.04 1008.34 1008.66 1009.01 1009.41 1009.86 1010.37 1010.92 1011.52 1012.13 1012.73 1013.30 1013.81 1014.23 1014.56 1014.79 1014.92 1014.96 1014.92 1014.83 1014.69 1014.52 1014.33 1014.14 1013.93 1013.72 1013.49 1013.24 1012.97 1012.68
Thickness
5598 5590 5586 5588 5588 5590 5585 5579 5577 5578 5581 5577 5573 5575 5580 5578 5573 5570 5568 5566 5566 5567 5568 5568 5568 5567 5566 5564 5563 5563 5563 5563 5562 5561 5561 5561 5561 5562 5565 5568 5570 5572 5575 5578
5585 5584 5590 5589 5585 5582 5578 5573 5571 5573 5574 5571 5567 5570 5576 5575 5572 5570 5568 5565 5562 5563 5563 5563 5562 5560 5558 5557 5556 5556 5556 5555 5555 5555 5554 5554 5553 5553 5556 5559 5561 5563 5566 5569
5584 5586 5588 5584 5579 5575 5572 5569 5569 5568 5565 5563 5560 5567 5572 5575 5571 5569 5567 5564 5561 5560 5558 5558 5556 5554 5552 5551 5550 5551 5550 5549 5548 5548 5546 5545 5544 5545 5546 5550 5552 5556 5558 5560
5576 5580 5580 5577 5575 5572 5568 5570 5567 5562 5553 5546 5550 5546 5566 5566 5564 5566 5564 5560 5557 5556 5554 5552 5551 5549 5547 5546 5545 5545 5544 5543 5542 5541 5540 5540 5539 5540 5540 5542 5545 5548 5550 5552
5571 5575 5574 5572 5573 5569 5566 5565 5561 5557 5549 5541 5539 5535 5554 5558 5561 5564 5562 5559 5555 5553 5550 5549 5547 5545 5544 5541 5540 5539 5538 5537 5536 5535 5535 5534 5534 5533 5533 5535 5537 5539 5542 5544
5565 5569 5570 5569 5568 5565 5560 5555 5548 5537 5534 5540 5541 5530 5544 5549 5560 5563 5561 5556 5552 5550 5548 5546 5543 5541 5539 5537 5535 5534 5533 5532 5531 5530 5529 5529 5528 5527 5527 5528 5530 5532 5534 5536
5558 5561 5563 5564 5560 5556 5553 5545 5536 5535 5526 5536 5536 5530 5544 5560 5560 5560 5558 5554 5549 5546 5543 5541 5539 5536 5534 5532 5530 5529 5528 5527 5526 5525 5524 5523 5523 5522 5522 5523 5524 5526 5527 5528
5546 5547 5555 5554 5554 5547 5542 5543 5536 5535 5528 5527 5528 5529 5550 5560 5558 5555 5553 5549 5545 5543 5540 5538 5536 5533 5530 5528 5526 5524 5522 5521 5520 5519 5518 5517 5517 5516 5517 5518 5518 5520 5522 5525
5534 5541 5548 5548 5549 5545 5536 5530 5533 5520 5517 5516 5522 5529 5544 5555 5554 5551 5547 5543 5540 5538 5537 5534 5532 5530 5527 5525 5523 5521 5518 5517 5515 5514 5513 5513 5512 5512 5512 5512 5513 5514 5516 5518
5529 5528 5537 5538 5541 5538 5536 5524 5512 5516 5522 5521 5527 5527 5539 5552 5550 5547 5542 5538 5535 5533 5532 5530 5527 5526 5523 5521 5519 5517 5515 5513 5512 5510 5509 5508 5507 5507 5507 5506 5507 5507 5509 5510
5520 5517 5521 5526 5528 5528 5522 5520 5516 5506 5509 5513 5513 5535 5548 5549 5549 5543 5539 5535 5530 5527 5527 5525 5523 5521 5519 5517 5514 5513 5511 5509 5507 5506 5505 5503 5503 5503 5502 5501 5501 5502 5502 5503
5506 5500 5502 5513 5522 5521 5519 5516 5507 5509 5506 5496 5500 5529 5551 5544 5541 5536 5533 5531 5527 5524 5522 5520 5518 5516 5514 5512 5510 5508 5507 5505 5504 5502 5500 5499 5498 5498 5497 5496 5496 5495 5495 5496
5495 5493 5497 5507 5511 5508 5509 5507 5503 5500 5495 5484 5489 5526 5541 5535 5534 5530 5527 5524 5521 5520 5518 5515 5512 5511 5509 5507 5506 5504 5502 5500 5499 5498 5496 5495 5494 5492 5491 5490 5489 5489 5489 5489
5491 5483 5488 5497 5506 5498 5496 5499 5494 5491 5485 5485 5497 5519 5533 5530 5526 5524 5521 5518 5515 5513 5512 5510 5508 5506 5504 5502 5501 5499 5497 5496 5494 5492 5491 5490 5488 5487 5485 5484 5483 5482 5482 5481
5477 5473 5477 5483 5488 5486 5490 5493 5487 5487 5489 5491 5505 5508 5527 5525 5521 5519 5515 5512 5509 5508 5507 5505 5503 5500 5499 5497 5495 5494 5493 5491 5490 5488 5486 5484 5483 5481 5479 5478 5477 5475 5474 5474
5459 5460 5464 5469 5477 5475 5479 5486 5486 5488 5490 5491 5497 5508 5519 5515 5511 5509 5506 5504 5504 5504 5503 5501 5499 5496 5494 5492 5490 5489 5487 5486 5484 5483 5480 5478 5476 5474 5473 5471 5470 5469 5468 5466
5442 5445 5449 5454 5462 5466 5470 5488 5488 5487 5486 5490 5495 5509 5509 5505 5505 5505 5502 5499 5500 5500 5499 5496 5494 5492 5489 5487 5485 5483 5482 5479 5477 5476 5474 5472 5469 5468 5467 5465 5464 5462 5461 5460
5434 5434 5433 5435 5446 5448 5486 5490 5488 5486 5486 5485 5492 5498 5499 5500 5501 5498 5496 5494 5494 5495 5494 5491 5488 5486 5484 5481 5479 5477 5475 5472 5470 5468 5466 5465 5463 5461 5460 5458 5457 5455 5454 5452
5433 5430 5423 5425 5431 5450 5470 5478 5475 5473 5479 5483 5484 5488 5489 5489 5488 5490 5491 5490 5490 5490 5488 5486 5483 5480 5478 5475 5472 5470 5467 5465 5463 5461 5459 5458 5456 5455 5453 5451 5449 5447 5446 5444
5422 5423 5421 5419 5429 5444 5469 5472 5468 5472 5473 5480 5476 5479 5477 5475 5476 5486 5486 5483 5482 5481 5480 5478 5474 5471 5469 5467 5464 5462 5459 5457 5455 5454 5452 5451 5449 5448 5446 5444 5442 5440 5438 5437
5407 5406 5410 5415 5423 5438 5452 5454 5459 5458 5468 5471 5469 5470 5467 5467 5474 5477 5475 5474 5473 5472 5470 5468 5464 5462 5460 5458 5456 5454 5452 5450 5449 5447 5445 5443 5441 5439 5438 5436 5434 5432 5430 5428
5403 5401 5402 5407 5413 5433 5445 5440 5445 5453 5457 5459 5460 5460 5459 5461 5463 5463 5463 5463 5462 5461 5459 5457 5455 5453 5451 5448 5447 5445 5443 5442 5440 5439 5437 5435 5432 5431 5429 5427 5425 5422 5420 5418
5399 5410 5412 5415 5428 5435 5432 5435 5439 5440 5443 5447 5449 5451 5451 5451 5452 5452 5452 5452 5451 5449 5448 5447 5444 5442 5440 5438 5437 5435 5434 5432 5430 5429 5427 5425 5423 5421 5419 5417 5415 5412 5410 5408
5389 5396 5397 5401 5415 5420 5422 5424 5428 5430 5434 5438 5439 5441 5441 5441 5442 5442 5441 5440 5438 5437 5437 5435 5433 5431 5429 5427 5426 5425 5423 5422 5420 5418 5416 5414 5412 5410 5409 5407 5405 5403 5401 5399
5389 5386 5386 5392 5403 5407 5415 5418 5420 5422 5424 5427 5428 5430 5432 5432 5432 5431 5430 5429 5428 5427 5425 5424 5423 5421 5419 5417 5415 5414 5413 5411 5409 5407 5406 5404 5402 5400 5398 5396 5395 5393 5391 5388
5383 5382 5383 5394 5400 5399 5408 5414 5412 5412 5415 5417 5419 5420 5421 5422 5422 5420 5419 5418 5417 5416 5414 5413 5411 5410 5408 5406 5405 5403 5402 5401 5398 5397 5395 5393 5391 5389 5387 5386 5384 5384 5382 5380